User: anonymous   Login
Location: Unspecified
(0.0000°N, 0.0000°E)
Time: 23:24:17
(UTC+00:00)
Language:

XCUBE-1 - Orbit

View from above orbital plane
View from above orbital plane
View from above satellite
View from above satellite

Ground track
Ground track

The orbit is defined by the following mean orbital elements,

1 62400U          26145.46463176 +.00000000 +00000-0 +27391-3 0 00005
2 62400  44.9981  56.8379 0002782  77.8349 282.2846 15.29195930    00
Epoch (UTC): 25 May 2026 11:09:04
Eccentricity: 0.0002782
inclination: 44.9981°
perigee height: 476 km
apogee height: 480 km
right ascension of ascending node: 56.8379°
argument of perigee: 77.8349°
revolutions per day: 15.29195930
mean anomaly at epoch: 282.2846°

The dashed part of the orbit path shows where the satellite is in the earth's shadow,  

DLR